Regional Weather Roundup
Issued by NWS Jackson, KY

Home | Current Version | Previous Version | Graphics & Text | Print | Product List | Glossary On
Versions: 1 2 3 4 5 6 7 8 9 10 11 12 13 14 15 16 17 18 19 20 21 22 23 24 25 26 27 28 29 30 31 32 33 34 35 36 37 38 39 40 41 42 43 44 45 46 47 48 49 50
236
ASUS43 KJKL 210910
RWRJKL

EAST KENTUCKY HOURLY WEATHER ROUNDUP
NATIONAL WEATHER SERVICE JACKSON KY
500 AM EDT FRI JUL 21 2017

NOTE: "FAIR" INDICATES FEW OR NO CLOUDS BELOW 12,000 FEET WITH
NO SIGNIFICANT WEATHER AND/OR OBSTRUCTIONS TO VISIBILITY.

* THESE REPORTS ARE NOT UNDER NWS QUALITY CONTROL AND MAY NOT
  REPORT WEATHER SUCH AS PRECIPITATION AND FOG.

KYZ079-080-083-085-087-088-110-112-115-119-120-211000
...EASTERN KENTUCKY...

CITY           SKY/WX    TMP DP  RH WIND       PRES   REMARKS
JACKSON        MOCLDY    74  71  91 CALM      30.05F
LONDON         CLOUDY    73  71  93 CALM      30.06S FOG
SOMERSET*      PTCLDY    70  70 100 CALM      30.06S FOG
MONTICELLO*    CLEAR     70  70 100 W12       30.07S FOG
WILLIAMSBURG*  SUNNY     72  72 100 CALM      30.06S
MIDDLESBORO*   CLOUDY    70  70 100 CALM      30.08S
HARLAN APT*    CLOUDY    68  64  88 CALM      30.10S
PIKE CO APT*     N/A     73  73 100 SE3       30.06S
BIG SANDY APT* PTSUNNY   74  73  95 CALM      30.04S
MOREHEAD APT*  PTSUNNY   77  73  88 SW7       30.03S
ASHLAND*         N/A    N/A N/A N/A MISG        N/A
$$

KYZ035-036-041-042-044-050-067-078-099-211000
...CENTRAL KENTUCKY...

CITY           SKY/WX    TMP DP  RH WIND       PRES   REMARKS
MT STERLING*   MOCLDY    73  73 100 SW3       30.04R
FLEMING/MASON* CLOUDY    76  72  88 W6        30.02S
DANVILLE*      PTCLDY    70  70 100 CALM      30.05S FOG
LEXINGTON      PTCLDY    76  71  85 SW3       30.03S
FRANKFORT      CLOUDY    77  71  82 SW3       30.00S
LOUISVILLE     CLOUDY    81  74  79 SW6       29.99S
LEBANON*         N/A     75  72  88 CALM      30.03S
GLASGOW*       CLEAR    N/A N/A N/A CALM      30.03R HAZE
BOWLING GREEN  PTCLDY    78  74  87 SW6       30.02S
$$

KYZ091>093-OHZ055-061-077-WVZ005-015-034-035-042-211000
...SOUTHERN OHIO/WEST VIRGINIA...

CITY           SKY/WX    TMP DP  RH WIND       PRES   REMARKS
COVINGTON      CLOUDY    78  75  90 SW5       29.99S
COLUMBUS       TSTM      80  76  87 SW5       29.96S
DAYTON         CLOUDY    78  73  84 SW9       29.99R
WILMINGTON     CLOUDY    76  74  93 SW7       29.99S
HUNTINGTON     MOCLDY    76  72  87 S3        29.99S
CHARLESTON     CLOUDY    73  69  87 CALM      30.01S
PINEVILLE*     CLEAR     66  65  96 MISG      30.13S FOG
BECKLEY        CLOUDY    67  63  87 S5        30.11S
BLUEFIELD      CLEAR     67  62  84 W7        30.14F
LOGAN CO APT*  CLOUDY    72  70  94 CALM      30.06S
$$

VAZ002-007-008-TNZ017-027-036-066-071-211000
...SOUTHWEST VIRGINIA/EAST TENNESSEE...

CITY           SKY/WX    TMP DP  RH WIND       PRES   REMARKS
WISE*          CLOUDY    70  68  94 CALM      30.15S
JONESVILLE*      N/A     66  66 100 CALM      30.10S FOG
ABINGDON*      PTCLDY    69  67  93 CALM      30.11S
BRISTOL        CLEAR     67  67 100 CALM      30.08F
MORRISTOWN*    PTSUNNY   72  68  88 CALM      30.05S
SEVIERVILLE*   SUNNY     70  66  88 CALM      30.05R
KNOXVILLE      CLEAR     72  69  90 CALM      30.03F
LAFOLLETTE*    MOSUNNY   70  70 100 CALM      30.09S FOG
OAK RIDGE      CLEAR     73  71  93 CALM      30.05F
CROSSVILLE     CLEAR     69  68  96 CALM      30.10F FOG
NASHVILLE      PTCLDY    76  73  91 CALM      30.03S
$$

...KEY TO REMARKS...
VSB - VISIBILITY IN MILES
WCI - WIND CHILL INDEX
HX  - HEAT INDEX

$$




USA.gov is the U.S. government's official web portal to all federal, state and local government web resources and services.